STARLINK-37289, 68545

Orbit data source: Space-Track

STARLINK-37289, 68545 is a payload satellite owned by SpaceX/Seattle (US) in LEO that was launched on Thu, 02 Apr 2026 UTC via an FALCON 9 launch vehicle from the Air Force Eastern Test Range (AFETR). Payload-class satellites include a variety of spacecraft equipped with specific instruments for various scientific and technological missions. These include communications satellites like Starlink; space stations such as the ISS; scientific satellites like the Hubble; Earth observation satellites from companies like Planet Labs, Umbra, and HawkEye 360; GPS; miniature CubeSats for education and research; and military/defense satellites.

Loading next visibility...
Identifier
68545, 2026-070D
Orbit
LEO
Country
Flag of USUS
Related business
Manufacturer
SpaceX/Seattle
Mission
Operational spacecraft
Bus & Motor
STARLINK V2MO, Unknown motor
Mass
575 kg wet, ~530 kg dry
Launch date (UTC)
2026-04-02 (2 months ago)
Launch vehicle
FALCON 9
Launch site
Air Force Eastern Test Range (AFETR)
Object type
Payload
Rocket body
Debris
Shape & HBR
Unknown shape, 14.5 m
Radar Cross Section
RCS unknown

Expand to show TLE details & history
Last TLE update: 10 hours ago

TLE from 10 hours ago
0 STARLINK-37289
1 68545U 26070D   26145.58335648  .00060776  00000-0  17970-2 0  9995
2 68545  53.1605   5.1888 0001261  93.8717 167.0936 15.34372483  5877
Epoch: 2026-05-25T14:00Z
TLE epoch observation values (Epoch: 2026-05-25T14:00:01.999Z)
Latitude
-52.38039°
Longitude
167.19738°
Altitude
481.809 km
Speed
7.624 km/s
True Right ascension
17h 21m 29s
True Declination
-52° 12' 26"
Sunlit
Object was in full shadow at epoch
Visualization orbit readout
Latitude
Unknown
Longitude
Unknown
Altitude
Unknown
Speed
Unknown
Apparent Right ascension
Unknown
Apparent Declination
Unknown
Sunlit
N/A
Visualization observer readout
Local Sidereal Time
09:22:16
Azimuth
Unknown
Elevation
Unknown
Doppler factor
Unknown
Orbital elements
Apogee altitude
463.905 km
Perigee altitude
462.179 km
Semi-major axis
6,841.179 km
Eccentricity
0.00013
Inclination
53.1605°
RAAN
5.1888°
Arg. of periapsis
93.8717°
True anomaly
167.09683°
Mean anomaly
167.0936°
Eccentric anomaly
167.09521°
Mean motion
3.83572 °/min
Orbital period
93.85 mins
BSTAR
0.001797
Loading maneuver chart data...
Computing Atmospheric mass density...
Loading historical data...
Loading historical data...
Loading historical data...
Loading historical data...
Loading historical data...
Loading historical data...
Loading historical data...

Documentation

Showing up to 5 results
|